When you browse on this site, cookies collect data to enhance your experience and personalize the content and advertising you see.
Visit our Privacy Policy to learn more. By continuing to use the site, you agree to this use of cookies and data.
  • In United Kingdom
  • List of Countries
  • For 7 days
  • Water Temperature
  • Weather Map
  • Weather Widgets
  • user-avatar
    Login

    Hourly Weather Vasyl'ky

    Today, 18 September, Wednesday

    Time Temperature Precipitation Wind Pressure Humidity
    00:00 +11°C° 0 mm 3 mps 744 mmHg 54%
    01:00 +12°C° 0 mm 3 mps 744 mmHg 52%
    02:00 +13°C° 0 mm 4 mps 743 mmHg 51%
    03:00 +12°C° 0 mm 4 mps 743 mmHg 56%
    04:00 +11°C° 0 mm 4 mps 742 mmHg 60%
    05:00 +11°C° 0 mm 4 mps 742 mmHg 65%
    06:00 +10°C° 0.2 mm 5 mps 742 mmHg 67%
    07:00 +11°C° 0.2 mm 6 mps 742 mmHg 68%
    08:00 +11°C° 0 mm 7 mps 742 mmHg 75%
    09:00 +11°C° 0.7 mm 8 mps 742 mmHg 67%
    10:00 +12°C° 0.7 mm 8 mps 743 mmHg 59%
    11:00 +13°C° 0.7 mm 9 mps 743 mmHg 51%
    12:00 +13°C° 0.2 mm 10 mps 743 mmHg 49%
    13:00 +12°C° 0.2 mm 10 mps 743 mmHg 47%
    14:00 +12°C° 0.2 mm 11 mps 744 mmHg 44%
    15:00 +12°C° 0 mm 10 mps 744 mmHg 46%
    16:00 +11°C° 0 mm 10 mps 745 mmHg 48%
    17:00 +10°C° 0 mm 9 mps 745 mmHg 50%
    18:00 +9°C° 0 mm 8 mps 746 mmHg 56%
    19:00 +9°C° 0 mm 8 mps 746 mmHg 61%
    20:00 +8°C° 0 mm 7 mps 747 mmHg 66%
    21:00 +6°C° 0 mm 7 mps 747 mmHg 69%
    22:00 +7°C° 0 mm 6 mps 747 mmHg 71%
    23:00 +7°C° 0 mm 6 mps 748 mmHg 74%

    Tomorrow, 19 September, Thursday

    Time Temperature Precipitation Wind Pressure Humidity
    00:00 +7°C° 0 mm 6 mps 748 mmHg 76%
    01:00 +6°C° 0 mm 5 mps 749 mmHg 78%
    02:00 +6°C° 0 mm 5 mps 750 mmHg 80%
    03:00 +6°C° 0 mm 4 mps 750 mmHg 83%
    04:00 +6°C° 0 mm 4 mps 750 mmHg 86%
    05:00 +5°C° 0 mm 4 mps 751 mmHg 89%
    06:00 +7°C° 0 mm 5 mps 751 mmHg 83%
    07:00 +8°C° 0 mm 5 mps 751 mmHg 77%
    08:00 +9°C° 0 mm 6 mps 752 mmHg 71%
    09:00 +10°C° 0 mm 6 mps 752 mmHg 66%
    10:00 +11°C° 0 mm 6 mps 752 mmHg 62%
    11:00 +13°C° 0 mm 5 mps 753 mmHg 57%
    12:00 +13°C° 0.1 mm 6 mps 752 mmHg 57%
    13:00 +13°C° 0.1 mm 6 mps 752 mmHg 56%
    14:00 +13°C° 0.1 mm 6 mps 752 mmHg 56%
    15:00 +13°C° 0 mm 5 mps 753 mmHg 56%
    16:00 +13°C° 0 mm 5 mps 753 mmHg 56%
    17:00 +12°C° 0 mm 4 mps 753 mmHg 57%
    18:00 +11°C° 0 mm 3 mps 753 mmHg 63%
    19:00 +9°C° 0 mm 3 mps 753 mmHg 70%
    20:00 +8°C° 0 mm 2 mps 753 mmHg 77%
    21:00 +7°C° 0 mm 2 mps 753 mmHg 79%
    22:00 +7°C° 0 mm 2 mps 753 mmHg 82%
    23:00 +6°C° 0 mm 2 mps 753 mmHg 84%

    Day after tomorrow, 20 September, Friday

    Time Temperature Precipitation Wind Pressure Humidity
    00:00 +6°C° 0 mm 2 mps 753 mmHg 85%
    01:00 +6°C° 0 mm 2 mps 753 mmHg 86%
    02:00 +6°C° 0 mm 2 mps 753 mmHg 86%
    03:00 +5°C° 0 mm 2 mps 753 mmHg 88%
    04:00 +5°C° 0 mm 2 mps 753 mmHg 90%
    05:00 +5°C° 0 mm 2 mps 753 mmHg 91%
    06:00 +6°C° 0 mm 2 mps 753 mmHg 84%
    07:00 +8°C° 0 mm 2 mps 753 mmHg 77%
    08:00 +9°C° 0 mm 2 mps 753 mmHg 70%
    09:00 +12°C° 0 mm 2 mps 753 mmHg 62%
    10:00 +12°C° 0 mm 3 mps 752 mmHg 54%
    11:00 +14°C° 0 mm 3 mps 752 mmHg 46%
    12:00 +14°C° 0.2 mm 3 mps 752 mmHg 46%
    13:00 +14°C° 0.2 mm 4 mps 752 mmHg 46%
    14:00 +15°C° 0.2 mm 4 mps 752 mmHg 46%
    15:00 +13°C° 0.5 mm 4 mps 752 mmHg 53%
    16:00 +12°C° 0.5 mm 5 mps 752 mmHg 61%
    17:00 +10°C° 0.5 mm 5 mps 752 mmHg 69%
    18:00 +10°C° 0 mm 4 mps 752 mmHg 74%
    19:00 +7°C° 0 mm 4 mps 753 mmHg 79%
    20:00 +6°C° 0 mm 4 mps 753 mmHg 84%
    21:00 +5°C° 0 mm 4 mps 753 mmHg 86%
    22:00 +5°C° 0 mm 4 mps 753 mmHg 88%
    23:00 +4°C° 0 mm 4 mps 753 mmHg 90%

    21 September, Saturday

    Time Temperature Precipitation Wind Pressure Humidity
    00:00 +4°C° 0 mm 4 mps 754 mmHg 91%
    01:00 +3°C° 0 mm 4 mps 754 mmHg 93%
    02:00 +3°C° 0 mm 4 mps 754 mmHg 95%
    03:00 +3°C° 0 mm 4 mps 754 mmHg 94%
    04:00 +1°C° 0 mm 5 mps 755 mmHg 94%
    05:00 +1°C° 0 mm 5 mps 755 mmHg 93%
    06:00 +2°C° 0 mm 5 mps 755 mmHg 87%
    07:00 +3°C° 0 mm 5 mps 755 mmHg 80%
    08:00 +5°C° 0 mm 5 mps 756 mmHg 74%
    09:00 +7°C° 0 mm 5 mps 756 mmHg 64%
    10:00 +8°C° 0 mm 6 mps 756 mmHg 54%
    11:00 +10°C° 0 mm 6 mps 756 mmHg 44%
    12:00 +11°C° 0 mm 6 mps 756 mmHg 39%
    13:00 +13°C° 0 mm 5 mps 755 mmHg 34%
    14:00 +13°C° 0 mm 5 mps 755 mmHg 30%
    15:00 +13°C° 0 mm 5 mps 755 mmHg 34%
    16:00 +13°C° 0 mm 4 mps 755 mmHg 39%
    17:00 +12°C° 0 mm 3 mps 755 mmHg 43%
    18:00 +12°C° 0 mm 4 mps 755 mmHg 50%
    19:00 +10°C° 0 mm 5 mps 754 mmHg 56%
    20:00 +10°C° 0 mm 5 mps 754 mmHg 63%
    21:00 +10°C° 0.2 mm 6 mps 754 mmHg 69%
    22:00 +9°C° 0.2 mm 6 mps 754 mmHg 76%
    23:00 +9°C° 0.2 mm 6 mps 753 mmHg 82%

    22 September, Sunday

    Time Temperature Precipitation Wind Pressure Humidity
    00:00 +9°C° 0 mm 6 mps 753 mmHg 81%
    01:00 +9°C° 0 mm 5 mps 753 mmHg 80%
    02:00 +9°C° 0 mm 5 mps 752 mmHg 78%
    03:00 +9°C° 0 mm 6 mps 752 mmHg 79%
    04:00 +9°C° 0 mm 6 mps 752 mmHg 81%
    05:00 +9°C° 0 mm 6 mps 752 mmHg 82%
    06:00 +9°C° 0 mm 7 mps 752 mmHg 78%
    07:00 +10°C° 0 mm 7 mps 751 mmHg 75%
    08:00 +11°C° 0 mm 8 mps 751 mmHg 71%
    09:00 +12°C° 0 mm 8 mps 751 mmHg 69%
    10:00 +13°C° 0 mm 8 mps 751 mmHg 67%
    11:00 +15°C° 0 mm 8 mps 751 mmHg 65%
    12:00 +15°C° 0 mm 8 mps 751 mmHg 61%
    13:00 +16°C° 0 mm 9 mps 751 mmHg 58%
    14:00 +17°C° 0 mm 9 mps 750 mmHg 55%
    15:00 +16°C° 0 mm 8 mps 751 mmHg 56%
    16:00 +16°C° 0 mm 7 mps 751 mmHg 57%
    17:00 +15°C° 0 mm 7 mps 752 mmHg 58%
    18:00 +13°C° 0 mm 6 mps 752 mmHg 55%
    19:00 +10°C° 0 mm 5 mps 753 mmHg 51%
    20:00 +8°C° 0 mm 4 mps 753 mmHg 48%
    21:00 +8°C° 0 mm 3 mps 754 mmHg 51%
    22:00 +7°C° 0 mm 3 mps 754 mmHg 54%
    23:00 +6°C° 0 mm 2 mps 755 mmHg 58%

    23 September, Monday

    Time Temperature Precipitation Wind Pressure Humidity
    00:00 +5°C° 0 mm 2 mps 755 mmHg 60%
    01:00 +6°C° 0 mm 1 mps 755 mmHg 62%
    02:00 +5°C° 0 mm 1 mps 755 mmHg 64%
    03:00 +5°C° 0 mm 1 mps 755 mmHg 65%
    04:00 +5°C° 0 mm 1 mps 755 mmHg 66%
    05:00 +4°C° 0 mm 1 mps 755 mmHg 67%
    06:00 +5°C° 0 mm 2 mps 755 mmHg 61%
    07:00 +7°C° 0 mm 2 mps 755 mmHg 55%
    08:00 +8°C° 0 mm 3 mps 755 mmHg 49%
    09:00 +10°C° 0 mm 3 mps 755 mmHg 44%
    10:00 +12°C° 0 mm 4 mps 755 mmHg 38%
    11:00 +14°C° 0 mm 4 mps 754 mmHg 33%
    12:00 +15°C° 0 mm 4 mps 753 mmHg 34%
    13:00 +16°C° 0 mm 5 mps 752 mmHg 35%
    14:00 +17°C° 0 mm 5 mps 751 mmHg 37%
    15:00 +17°C° 0 mm 5 mps 751 mmHg 40%
    16:00 +17°C° 0 mm 4 mps 750 mmHg 42%
    17:00 +17°C° 0 mm 4 mps 750 mmHg 45%
    18:00 +17°C° 0 mm 4 mps 749 mmHg 48%
    19:00 +15°C° 0 mm 4 mps 749 mmHg 51%
    20:00 +14°C° 0 mm 4 mps 748 mmHg 53%
    21:00 +14°C° 0.1 mm 4 mps 748 mmHg 59%
    22:00 +14°C° 0.1 mm 4 mps 747 mmHg 65%
    23:00 +14°C° 0.1 mm 4 mps 747 mmHg 70%
    Show more